Simultaneous Nadir Overpasses (SNOs) Predictions

Prediction of SNOs between AURA and NPP Satellite Orbit:

Table of predicted SNOs for the next 14.0 days since TLE Epoch: 4/4/2014
Index Date (AURA) Time (AURA) Lat,Lon (AURA) SZA (AURA ) Date (NPP) Time (NPP) Lat,Lon (NPP) SZA (NPP ) Distance(km) Time Diff (sec)
1 04/06/2014 16:41:35 -77.78, -2.71 91.72 04/06/2014 16:40:59 -77.79, -2.62 91.72 2.51 36
2 04/06/2014 17:30:51 78.21, 166.90 87.73 04/06/2014 17:31:33 78.21, 166.91 87.69 0.31 42
3 04/09/2014 08:58:02 -77.96, 113.92 92.96 04/09/2014 08:57:55 -77.97, 114.04 92.98 3.06 7
4 04/09/2014 09:47:18 78.38, -76.42 86.50 04/09/2014 09:48:29 78.38, -76.37 86.43 1.30 71
5 04/12/2014 00:25:18 77.50, 60.17 86.62 04/12/2014 00:24:22 77.50, 60.17 86.67 0.15 56
6 04/12/2014 01:14:34 -78.02,-129.92 94.04 04/12/2014 01:14:55 -78.02,-129.95 94.05 0.75 21
7 04/14/2014 16:41:51 77.59, 176.38 85.53 04/14/2014 16:41:21 77.58, 176.33 85.57 1.28 30
8 04/14/2014 17:31:08 -78.07, -13.86 95.08 04/14/2014 17:31:55 -78.06, -13.97 95.10 2.54 47
9 04/17/2014 08:58:24 77.74, -67.11 84.38 04/17/2014 08:58:18 77.74, -67.14 84.39 0.77 6




NCC Satellite Simultaneous Nadir Overpasses (SNOs) Prediction Service
